Weather History for KIOB - February, 2014

Change the Weather History Date:

Saturday, February 15, 2014

  Actual Average Record
Temperature  
Mean Temperature 26 °F -  
Max Temperature 32 °F 49 °F 41 °F (2013)
Min Temperature 19 °F 30 °F 5 °F (2015)
Degree Days  
Heating Degree Days 40    
Moisture  
Dew Point 20 °F    
Average Humidity 82    
Maximum Humidity 100    
Minimum Humidity 64    
Precipitation  
Precipitation 0.00 in - - ()
Sea Level Pressure  
Sea Level Pressure 30.02 in    
Wind  
Wind Speed 9 mph (WNW)    
Max Wind Speed 15 mph    
Max Gust Speed 25 mph    
Visibility 8 miles    
Events Snow    
Averages and records for this station are not official NWS values.
T = Trace of Precipitation, MM = Missing Value Source: NWS Daily Summary

Daily Weather History Graph

Daily Weather History Graph

Search for Another Location

Airport or City:

Trip Planner

Search our weather history database for the weather conditions in past years. The results will help you decide how hot, cold, wet, or windy it might be!

Date:

Astronomy

Feb. 15, 2014 Rise Set
Actual Time 7:25 AM EST 6:14 PM EST
Civil Twilight 6:59 AM EST 6:41 PM EST
Nautical Twilight 6:28 AM EST 7:12 PM EST
Astronomical Twilight 5:57 AM EST 7:43 PM EST
Moon 7:12 PM EST (2/15) 7:25 AM EST (2/15)
Length of Visible Light 11h 42m
Length of Day
10h 48m
Full, 100% of the Moon is Illuminated
Feb 15
Full
Feb 22
Last Quarter
Mar 1
New
Mar 8
First Quarter
Mar 16
Full

Hourly Weather History & Observations

Time (EST) Temp. Windchill Dew Point Humidity Pressure Visibility Wind Dir Wind Speed Gust Speed Precip Events Conditions
12:15 AM 32.0 °F 21.6 °F 32.0 °F 100% 29.67 in 2.0 mi North 15.0 mph 19.6 mph N/A Snow Light Snow
12:35 AM 30.2 °F 19.3 °F 30.2 °F 100% 29.70 in 2.5 mi North 15.0 mph 23.0 mph N/A Snow Light Snow
12:55 AM 30.2 °F 20.2 °F 28.4 °F 93% 29.71 in 2.5 mi North 12.7 mph 20.7 mph N/A Snow Light Snow
1:15 AM 28.4 °F 17.5 °F 26.6 °F 93% 29.73 in 2.5 mi North 13.8 mph 20.7 mph N/A Snow Light Snow
1:35 AM 26.6 °F 15.7 °F 24.8 °F 93% 29.75 in 2.0 mi North 12.7 mph 23.0 mph N/A Snow Light Snow
1:55 AM 24.8 °F 12.9 °F 23.0 °F 93% 29.76 in 1.2 mi North 13.8 mph 21.9 mph N/A Snow Light Snow
2:15 AM 23.0 °F 11.7 °F 21.2 °F 93% 29.78 in 1.5 mi North 11.5 mph 25.3 mph N/A Snow Light Snow
2:35 AM 23.0 °F 12.4 °F 21.2 °F 93% 29.80 in 2.0 mi NNW 10.4 mph 18.4 mph N/A Snow Light Snow
2:55 AM 23.0 °F 13.9 °F 21.2 °F 93% 29.82 in 2.5 mi North 8.1 mph 24.2 mph N/A Snow Light Snow
3:15 AM 23.0 °F 11.7 °F 21.2 °F 93% 29.83 in 7.0 mi NNW 11.5 mph 17.3 mph N/A   Overcast
3:35 AM 23.0 °F 11.7 °F 19.4 °F 86% 29.84 in 7.0 mi NNW 11.5 mph 19.6 mph N/A   Overcast
3:55 AM 23.0 °F 12.4 °F 19.4 °F 86% 29.85 in 7.0 mi NNW 10.4 mph 18.4 mph N/A   Overcast
4:15 AM 21.2 °F 10.1 °F 19.4 °F 93% 29.86 in 7.0 mi NNW 10.4 mph 17.3 mph N/A   Overcast
4:35 AM 21.2 °F 10.9 °F 19.4 °F 93% 29.87 in 7.0 mi North 9.2 mph 19.6 mph N/A   Overcast
4:55 AM 21.2 °F 9.5 °F 19.4 °F 93% 29.89 in 7.0 mi NNW 11.5 mph 17.3 mph N/A   Overcast
5:15 AM 21.2 °F 10.1 °F 19.4 °F 93% 29.91 in 10.0 mi NNW 10.4 mph 18.4 mph N/A   Overcast
5:35 AM 21.2 °F 12.6 °F 17.6 °F 86% 29.93 in 10.0 mi NNW 6.9 mph - N/A   Overcast
5:55 AM 21.2 °F 10.1 °F 17.6 °F 86% 29.95 in 7.0 mi NW 10.4 mph 20.7 mph N/A   Overcast
6:15 AM 21.2 °F 12.6 °F 17.6 °F 86% 29.97 in 7.0 mi NNW 6.9 mph 18.4 mph N/A Snow Light Snow
6:35 AM 21.2 °F 10.9 °F 17.6 °F 86% 29.98 in 5.0 mi NNW 9.2 mph - N/A Snow Light Snow
6:55 AM 21.2 °F 9.5 °F 17.6 °F 86% 30.00 in 5.0 mi NNW 11.5 mph 17.3 mph N/A Snow Light Snow
7:15 AM 21.2 °F 11.7 °F 17.6 °F 86% 30.01 in 5.0 mi NW 8.1 mph - N/A Snow Light Snow
7:35 AM 19.4 °F 10.4 °F 17.6 °F 93% 30.02 in 5.0 mi NNW 6.9 mph - N/A Snow Light Snow
7:55 AM 19.4 °F 12.8 °F 17.6 °F 93% 30.02 in 3.0 mi NW 4.6 mph - N/A Snow Light Snow
8:15 AM 21.2 °F 13.6 °F 17.6 °F 86% 30.04 in 3.0 mi NW 5.8 mph - N/A Snow Light Snow
8:35 AM 21.2 °F 14.9 °F 17.6 °F 86% 30.04 in 4.0 mi NW 4.6 mph - N/A Snow Light Snow
8:55 AM 21.2 °F 13.6 °F 17.6 °F 86% 30.06 in 2.5 mi NW 5.8 mph - N/A Snow Light Snow
9:15 AM 21.2 °F 11.7 °F 17.6 °F 86% 30.06 in 3.0 mi NW 8.1 mph - N/A Snow Light Snow
9:35 AM 21.2 °F 13.6 °F 17.6 °F 86% 30.08 in 4.0 mi NNW 5.8 mph - N/A Snow Light Snow
9:55 AM 21.2 °F 8.9 °F 17.6 °F 86% 30.08 in 5.0 mi NW 12.7 mph 16.1 mph N/A Snow Light Snow
10:15 AM 21.2 °F 11.7 °F 17.6 °F 86% 30.09 in 5.0 mi NNW 8.1 mph - N/A Snow Light Snow
10:35 AM 23.0 °F 13.9 °F 17.6 °F 80% 30.09 in 7.0 mi NNW 8.1 mph - N/A Snow Light Snow
10:55 AM 23.0 °F 15.8 °F 17.6 °F 80% 30.09 in 10.0 mi NNW 5.8 mph - N/A   Mostly Cloudy
11:15 AM 23.0 °F 13.9 °F 17.6 °F 80% 30.10 in 10.0 mi NW 8.1 mph - N/A   Mostly Cloudy
11:35 AM 23.0 °F 15.8 °F 17.6 °F 80% 30.10 in 10.0 mi NW 5.8 mph - N/A   Mostly Cloudy
11:55 AM 24.8 °F 15.3 °F 17.6 °F 74% 30.12 in 10.0 mi WNW 9.2 mph - N/A   Overcast
12:15 PM 24.8 °F 16.9 °F 17.6 °F 74% 30.12 in 10.0 mi NW 6.9 mph - N/A   Overcast
12:35 PM 24.8 °F 16.1 °F 17.6 °F 74% 30.12 in 10.0 mi WNW 8.1 mph - N/A   Overcast
12:55 PM 24.8 °F 16.9 °F 19.4 °F 80% 30.11 in 10.0 mi WNW 6.9 mph - N/A   Overcast
1:15 PM 24.8 °F 17.9 °F 17.6 °F 74% 30.11 in 10.0 mi WNW 5.8 mph - N/A   Overcast
1:35 PM 26.6 °F 20.0 °F 17.6 °F 69% 30.10 in 10.0 mi WNW 5.8 mph - N/A   Overcast
1:55 PM 26.6 °F 21.2 °F 17.6 °F 69% 30.11 in 10.0 mi WNW 4.6 mph - N/A   Overcast
2:15 PM 26.6 °F 19.1 °F 17.6 °F 69% 30.10 in 10.0 mi WNW 6.9 mph - N/A   Overcast
2:35 PM 28.4 °F 20.4 °F 19.4 °F 69% 30.11 in 10.0 mi West 8.1 mph - N/A   Overcast
2:55 PM 28.4 °F 21.2 °F 17.6 °F 64% 30.11 in 10.0 mi NW 6.9 mph - N/A   Overcast
3:15 PM 26.6 °F 17.5 °F 19.4 °F 74% 30.12 in 10.0 mi WNW 9.2 mph - N/A   Overcast
3:35 PM 26.6 °F 18.2 °F 19.4 °F 74% 30.11 in 10.0 mi NW 8.1 mph - N/A   Overcast
3:55 PM 26.6 °F 21.2 °F 19.4 °F 74% 30.12 in 10.0 mi NW 4.6 mph - N/A   Overcast
4:15 PM 26.6 °F 19.1 °F 17.6 °F 69% 30.12 in 10.0 mi West 6.9 mph - N/A   Overcast
4:35 PM 26.6 °F 19.1 °F 17.6 °F 69% 30.13 in 10.0 mi WNW 6.9 mph - N/A   Overcast
4:55 PM 26.6 °F 21.2 °F 17.6 °F 69% 30.13 in 10.0 mi West 4.6 mph - N/A   Overcast
5:15 PM 26.6 °F 20.0 °F 19.4 °F 74% 30.13 in 10.0 mi West 5.8 mph - N/A   Overcast
5:35 PM 26.6 °F 18.2 °F 19.4 °F 74% 30.13 in 10.0 mi West 8.1 mph - N/A   Overcast
5:55 PM 26.6 °F 18.2 °F 19.4 °F 74% 30.13 in 10.0 mi West 8.1 mph - N/A   Overcast
6:15 PM 26.6 °F 20.0 °F 19.4 °F 74% 30.14 in 10.0 mi WSW 5.8 mph - N/A   Overcast
6:35 PM 26.6 °F 22.6 °F 19.4 °F 74% 30.13 in 10.0 mi SW 3.5 mph - N/A   Overcast
6:55 PM 26.6 °F 19.1 °F 19.4 °F 74% 30.13 in 10.0 mi WSW 6.9 mph - N/A   Overcast
7:15 PM 26.6 °F 20.0 °F 19.4 °F 74% 30.12 in 10.0 mi WSW 5.8 mph - N/A   Scattered Clouds
7:35 PM 26.6 °F 22.6 °F 19.4 °F 74% 30.12 in 10.0 mi WSW 3.5 mph - N/A   Clear
7:55 PM 26.6 °F 22.6 °F 19.4 °F 74% 30.11 in 10.0 mi SW 3.5 mph - N/A   Clear
8:15 PM 26.6 °F 21.2 °F 19.4 °F 74% 30.10 in 10.0 mi SSW 4.6 mph - N/A   Clear
8:35 PM 24.8 °F 20.5 °F 19.4 °F 80% 30.10 in 10.0 mi SSW 3.5 mph - N/A   Clear
8:55 PM 26.6 °F 21.2 °F 19.4 °F 74% 30.09 in 10.0 mi South 4.6 mph - N/A   Scattered Clouds
9:15 PM 24.8 °F 19.1 °F 19.4 °F 80% 30.09 in 10.0 mi South 4.6 mph - N/A   Mostly Cloudy
9:35 PM 24.8 °F 20.5 °F 19.4 °F 80% 30.10 in 10.0 mi SSW 3.5 mph - N/A   Overcast
9:55 PM 24.8 °F 20.5 °F 19.4 °F 80% 30.09 in 10.0 mi South 3.5 mph - N/A   Overcast
10:15 PM 24.8 °F 20.5 °F 19.4 °F 80% 30.10 in 10.0 mi SSW 3.5 mph - N/A   Overcast
10:35 PM 24.8 °F 20.5 °F 19.4 °F 80% 30.11 in 10.0 mi WSW 3.5 mph - N/A   Overcast
10:55 PM 24.8 °F 20.5 °F 19.4 °F 80% 30.10 in 10.0 mi SW 3.5 mph - N/A   Overcast
11:15 PM 26.6 °F 21.2 °F 21.2 °F 80% 30.08 in 10.0 mi SSW 4.6 mph - N/A   Overcast
11:35 PM 26.6 °F 21.2 °F 21.2 °F 80% 30.08 in 10.0 mi SSW 4.6 mph - N/A   Overcast
11:55 PM 26.6 °F 21.2 °F 21.2 °F 80% 30.07 in 10.0 mi South 4.6 mph - N/A   Overcast